Wetbulb
35.47 38.08 39.86 38.69 37.47 39.20 36.10 36.77 32.76 35.96 37.72 40.55 44.00 45.31 47.50 48.99 49.34 47.90 47.31 47.66 47.45 46.68 45.22 43.60 41.68 39.00 38.67 37.41 35.33 35.09 34.79 35.00 33.53 35.39 34.06 34.75 35.64 36.46 36.80 36.80 36.10 35.86 35.87 35.85
30.11 35.92 37.03 36.24 39.29 40.07 39.57 39.34 38.41 38.45 38.81 44.90 47.75 47.42 46.89 47.13 48.16 47.02 46.45 46.23 46.95 46.58 45.73 43.16 42.03 38.74 37.91 35.66 34.72 34.93 33.17 32.27 32.81 33.64 33.32 34.04 34.92 35.86 35.48 34.98 33.88 33.79 34.66 33.90
25.44 33.25 32.47 30.66 36.52 38.60 39.74 41.18 40.45 36.26 41.79 44.89 44.88 45.67 46.10 47.57 49.10 49.54 48.23 46.84 45.85 45.18 45.14 43.80 41.95 39.03 38.66 37.36 35.89 34.22 32.35 31.53 30.99 30.82 31.17 33.04 34.50 34.72 31.55 32.40 32.50 30.67 31.52 31.22
25.79 29.60 21.03 36.04 42.46 41.95 40.54 41.61 42.96 43.58 44.20 44.68 45.19 46.36 48.00 49.24 48.79 48.76 49.67 48.06 46.66 46.27 45.63 44.53 43.72 42.33 41.49 39.16 36.86 34.70 32.55 31.20 30.60 29.62 29.74 31.38 31.23 30.52 31.51 31.33 30.52 30.52 30.18 30.77
24.64 25.03 30.46 34.68 38.84 39.20 37.92 38.18 44.14 43.00 44.16 44.82 46.52 47.26 46.75 48.67 49.18 49.77 50.27 49.15 47.95 47.90 46.34 45.68 44.44 43.83 42.61 38.82 37.76 35.99 33.39 32.01 30.80 28.98 28.76 29.71 28.44 29.51 31.23 31.06 30.99 31.72 31.19 30.61
27.81 23.07 20.77 34.22 40.36 43.40 42.53 33.33 43.30 43.95 43.53 43.88 44.51 40.20 45.69 49.91 50.00 49.77 53.13 51.10 48.79 48.09 46.75 44.97 43.80 43.35 41.01 38.47 37.34 36.14 34.96 33.18 32.20 29.85 29.22 28.11 29.15 30.12 31.31 31.58 31.44 30.21 28.62 29.63
28.26 25.14 29.23 38.41 40.70 42.73 30.20 34.25 43.76 44.51 44.29 43.80 42.65 45.16 49.11 49.51 49.38 49.75 43.15 39.70 49.42 45.40 43.54 40.55 40.27 40.98 36.82 35.57 35.11 35.79 35.46 34.96 32.57 31.46 30.69 29.75 30.32 31.72 31.12 31.17 30.66 29.67 28.30 28.22
29.83 26.23 24.33 41.24 40.43 34.93 40.44 44.32 44.80 45.55 46.17 47.25 47.11 42.69 42.67 45.75 46.47 44.95 41.72 39.14 37.52 36.98 36.25 36.44 36.40 36.61 34.48 33.82 34.06 34.79 34.24 32.97 31.51 31.68 31.23 31.06 31.05 32.01 32.02 32.17 30.59 29.94 29.45 29.07
32.14 32.72 41.06 43.72 43.02 45.29 45.90 45.23 46.13 46.19 46.75 46.80 47.70 43.68 44.19 44.72 45.45 44.69 40.74 39.43 37.59 33.90 34.26 35.35 35.71 34.81 33.40 32.42 32.34 32.22 31.57 30.05 30.22 31.80 31.65 32.82 31.93 31.99 31.44 31.92 31.01 30.57 30.13 29.86
35.58 38.55 40.71 42.66 44.41 45.40 45.73 45.55 46.36 46.93 46.62 47.72 46.35 46.53 43.85 45.06 45.24 43.30 41.34 39.09 36.18 33.91 32.51 31.90 33.35 34.55 33.73 31.70 31.70 31.08 29.95 29.83 30.40 30.04 31.18 31.57 31.30 31.25 32.15 31.35 31.14 30.78 29.90 29.85
36.04 39.79 41.41 43.09 44.39 45.00 45.24 46.34 46.48 47.10 47.20 47.52 47.38 47.04 45.46 44.73 44.05 43.47 41.96 38.98 37.48 35.85 33.98 32.57 33.50 32.76 31.55 31.43 31.70 30.93 30.05 30.04 29.41 29.91 29.81 30.05 31.98 31.61 32.04 33.05 31.52 30.21 30.79 30.97
34.55 40.65 40.97 41.80 44.17 45.59 44.31 44.30 46.11 46.19 46.51 47.03 46.82 46.80 46.80 45.39 44.90 43.07 41.01 40.34 39.65 38.00 36.10 34.14 33.85 31.64 31.30 32.38 32.86 31.93 30.13 30.82 31.07 31.22 31.11 30.13 30.75 29.25 28.64 30.63 28.96 28.46 29.17 30.56
39.55 43.42 43.36 44.96 45.43 45.71 45.03 44.76 45.81 45.58 46.13 45.88 46.13 47.42 46.84 45.26 44.47 41.34 42.47 42.30 41.40 40.04 38.17 36.50 35.21 33.62 33.91 34.26 34.45 33.27 32.18 32.39 31.98 32.19 31.91 31.14 30.61 27.98 26.21 28.04 28.11 26.48 25.99 26.88
44.14 43.51 41.13 43.52 42.83 45.45 45.37 45.73 44.62 43.93 44.23 44.97 45.98 46.82 46.73 44.70 42.51 42.47 41.45 41.82 41.55 39.91 38.06 37.71 36.98 35.09 35.31 35.33 35.18 34.56 34.39 31.72 33.63 34.17 33.75 33.78 32.56 30.71 29.33 26.70 25.26 25.59 24.96 25.71
42.57 43.47 42.99 44.68 44.10 43.97 45.09 45.44 45.05 43.42 43.55 43.02 44.03 43.26 42.08 40.17 40.12 41.79 42.91 42.81 41.87 40.88 40.00 39.73 37.85 35.79 36.46 36.32 35.01 34.24 34.78 34.46 35.48 36.25 35.67 34.55 34.31 32.56 31.07 28.02 27.03 25.98 24.76 24.18
41.54 40.73 41.50 40.76 40.59 41.61 43.29 43.39 42.97 43.81 45.86 46.03 45.31 44.32 44.21 43.52 43.12 42.33 41.57 41.02 39.85 38.78 39.38 36.68 36.94 37.09 37.27 36.46 35.65 35.29 35.83 32.77 34.13 34.99 33.88 32.76 32.43 31.19 29.48 27.89 27.81 26.83 24.86 24.67
38.84 39.21 41.59 41.27 41.82 41.92 41.42 42.48 42.86 43.07 43.80 45.16 46.48 46.30 45.38 43.92 42.81 40.52 39.28 39.53 37.35 37.80 37.20 36.58 34.53 35.14 34.84 35.29 35.95 34.94 35.37 33.56 32.03 31.89 31.02 30.76 30.43 29.45 28.50 27.96 27.23 27.18 26.80 28.35
42.33 42.86 43.30 43.03 42.63 43.20 42.16 42.27 43.02 43.64 43.38 44.70 41.56 37.52 35.71 36.07 39.03 37.73 35.78 34.23 32.63 32.45 32.99 32.81 33.10 32.46 32.95 34.29 35.76 34.87 33.52 31.54 31.52 31.02 30.31 30.08 30.01 29.19 29.05 28.38 27.74 27.74 27.56 27.68
41.17 41.30 41.91 41.92 42.85 43.32 43.00 42.46 40.47 36.35 34.21 34.80 35.17 34.80 35.35 34.98 34.26 33.17 32.81 32.08 31.50 30.27 30.06 31.30 29.63 31.45 31.70 32.68 34.46 34.92 32.29 31.20 30.82 30.59 30.19 29.88 30.00 29.54 29.38 29.21 28.16 28.08 27.59 25.56
38.35 38.97 38.48 36.07 35.08 35.98 34.96 32.18 33.88 32.43 33.53 34.44 34.62 33.72 32.99 32.81 32.63 31.89 32.81 33.31 34.66 35.73 31.09 29.82 30.49 31.75 31.66 31.19 30.58 33.95 31.61 31.10 29.63 30.14 30.66 29.65 29.74 29.74 29.31 27.77 27.81 27.67 27.41 25.92
33.49 31.96 31.50 31.53 31.36 31.72 31.31 31.54 31.90 31.00 32.63 33.72 33.53 32.99 32.08 31.90 32.40 32.61 31.94 32.40 30.16 31.56 30.51 29.62 32.03 31.38 31.27 30.89 32.28 33.00 31.72 30.80 31.61 29.95 29.44 28.82 29.22 28.51 28.51 28.60 27.89 27.53 26.95 26.34
31.76 32.19 31.90 31.90 31.72 30.60 30.74 31.54 31.90 31.34 31.15 31.15 31.34 31.72 31.30 31.06 31.36 31.07 32.08 31.35 30.36 29.70 30.32 31.36 31.94 31.38 31.18 29.80 33.31 33.08 30.99 29.95 29.72 29.60 28.73 28.81 28.58 27.52 27.53 27.70 27.65 27.91 27.57 27.10
32.24 32.18 31.97 31.36 30.82 30.56 30.92 30.68 30.75 31.51 30.89 31.34 31.54 31.72 31.69 33.10 32.79 32.24 30.49 31.58 31.17 30.86 31.92 32.17 30.39 29.41 28.99 34.23 32.69 31.53 30.79 30.42 29.72 29.68 29.58 29.48 28.37 28.52 28.51 28.23 28.06 28.11 27.74 27.34
31.96 31.47 31.53 31.90 32.79 31.94 29.63 30.42 29.87 29.84 29.71 30.15 30.55 32.07 32.28 30.88 31.40 32.04 32.47 30.88 29.90 31.31 32.07 30.87 29.40 28.37 30.65 32.08 31.56 31.00 30.60 29.66 29.58 29.92 29.15 28.17 29.47 29.48 29.61 28.58 27.59 27.62 27.00 26.11
31.34 30.88 31.11 31.20 31.08 30.30 30.05 30.85 30.97 30.79 30.90 30.78 30.75 31.44 32.32 33.06 31.62 30.18 30.08 29.63 29.40 29.58 29.55 28.48 28.18 29.33 31.66 31.36 30.87 29.97 29.41 29.53 29.51 29.47 28.98 28.94 29.15 28.50 28.51 27.87 27.33 26.65 26.11 25.67
32.84 33.30 33.04 32.32 31.78 31.96 31.79 32.21 30.49 30.32 29.73 28.20 28.48 29.04 29.30 29.46 29.08 29.39 29.65 29.54 28.90 27.86 27.79 28.68 29.69 31.16 31.34 30.96 30.72 30.10 29.54 28.77 28.17 28.19 28.28 28.27 27.94 27.51 26.99 26.32 26.29 25.88 24.94 24.54
33.26 31.61 32.10 31.24 31.56 31.29 30.94 30.35 29.43 29.11 29.87 29.59 27.98 28.79 28.40 28.95 28.48 27.78 28.09 28.80 28.73 28.58 28.53 28.57 29.65 29.95 30.00 29.83 29.26 28.87 28.03 28.02 28.15 27.75 28.13 27.82 27.30 26.95 26.09 25.56 24.95 25.10 24.68 23.68
MSLP
1005.85 1004.76 1003.07 1002.91 1003.24 1003.00 1003.46 1003.23 1003.31 1001.78 1000.76 1000.01 1000.36 1000.12 999.77 999.34 999.29 999.64 1000.57 1001.61 1002.58 1004.17 1005.87 1007.85 1009.93 1011.69 1012.74 1013.75 1014.63 1015.38 1015.97 1016.89 1018.14 1019.18 1019.96 1020.49 1020.89 1021.15 1021.52 1021.76 1022.07 1022.26 1022.47 1022.65
1007.44 1005.41 1004.16 1002.93 1001.97 1001.33 1001.18 1000.80 1000.97 1001.12 1000.02 999.57 999.21 999.99 999.89 999.18 999.26 999.74 1000.55 1001.51 1002.61 1004.09 1005.42 1007.21 1008.89 1010.84 1012.37 1013.55 1014.63 1015.66 1016.38 1017.32 1018.54 1019.26 1020.06 1020.55 1020.88 1021.22 1021.71 1022.05 1022.55 1022.72 1022.70 1023.36
1007.70 1006.15 1005.19 1002.91 1000.57 999.84 999.42 999.47 999.35 999.11 998.38 998.48 998.80 998.64 998.54 998.25 998.36 998.43 999.89 1001.02 1002.07 1003.43 1004.67 1006.32 1008.10 1009.71 1010.88 1012.52 1014.10 1015.20 1016.41 1017.45 1018.57 1019.45 1020.20 1020.64 1020.88 1021.26 1022.36 1022.74 1023.05 1023.47 1023.91 1024.32
1007.71 1006.42 1004.40 1001.75 999.89 999.16 998.64 998.28 998.11 997.59 997.49 997.41 997.94 997.90 997.78 998.05 998.12 998.31 998.81 1000.12 1001.86 1003.24 1004.51 1006.19 1007.79 1009.38 1010.51 1012.09 1013.36 1014.61 1015.93 1017.32 1018.40 1019.37 1020.19 1020.97 1021.35 1022.00 1022.61 1022.96 1023.23 1023.90 1024.38 1024.53
1007.41 1005.73 1003.35 1001.08 999.57 998.56 998.51 998.26 997.33 996.97 996.97 996.90 997.43 997.60 997.12 997.84 997.90 998.26 998.78 1000.09 1001.69 1003.04 1004.46 1005.70 1006.60 1008.25 1009.74 1011.33 1012.56 1013.82 1015.03 1016.49 1017.93 1019.13 1020.04 1020.84 1021.53 1022.05 1022.57 1022.99 1023.47 1023.89 1024.31 1024.63
1006.19 1004.89 1002.63 1000.02 998.87 998.85 998.57 997.63 997.32 997.15 997.00 997.24 997.54 997.33 997.05 997.21 997.78 998.80 999.66 1000.01 1001.42 1002.77 1004.26 1005.69 1006.62 1007.91 1009.25 1010.66 1011.93 1012.90 1014.26 1015.74 1017.18 1018.67 1019.57 1020.55 1021.28 1021.86 1022.44 1022.97 1023.44 1023.92 1024.37 1024.77
1004.58 1003.80 1001.83 999.31 998.74 998.20 998.41 997.37 996.85 997.29 997.38 997.80 998.13 998.29 998.31 998.83 998.95 999.62 1001.15 1001.33 1001.69 1003.02 1004.29 1005.78 1007.07 1008.34 1010.17 1011.20 1012.04 1012.97 1014.08 1015.37 1016.81 1018.07 1019.04 1020.22 1020.83 1021.39 1022.05 1022.55 1023.08 1023.57 1024.20 1024.67
1003.16 1002.32 1000.43 998.32 998.04 997.56 997.05 997.34 997.11 996.93 997.19 997.76 998.58 999.13 999.44 999.87 1000.25 1001.05 1002.05 1002.96 1003.35 1004.39 1005.62 1006.76 1007.85 1008.32 1010.29 1011.84 1012.23 1013.47 1014.47 1015.57 1016.77 1017.78 1018.69 1019.53 1020.29 1020.89 1021.44 1021.76 1022.38 1022.91 1023.38 1023.95
1002.03 1000.31 999.17 998.42 997.76 997.47 997.51 997.29 997.13 997.29 997.44 997.59 998.35 999.29 999.83 999.84 1000.29 1001.18 1002.64 1003.69 1004.90 1005.63 1006.70 1007.73 1008.65 1008.63 1010.84 1012.16 1012.73 1013.87 1014.95 1016.12 1017.24 1018.12 1018.84 1019.56 1020.23 1020.70 1021.03 1021.32 1021.92 1022.31 1022.59 1023.05
1001.35 999.83 999.01 998.02 998.08 997.99 997.63 997.44 997.37 997.35 997.42 997.40 997.85 998.80 999.54 999.71 1000.18 1001.37 1002.42 1003.64 1005.34 1006.25 1007.22 1008.42 1009.28 1010.09 1011.29 1012.38 1013.26 1014.20 1015.27 1016.43 1017.43 1018.14 1018.96 1019.95 1020.40 1020.88 1020.77 1021.16 1021.58 1021.96 1022.27 1022.71
1001.28 999.75 998.94 998.52 998.01 998.20 998.59 998.54 998.00 997.68 997.48 997.44 997.61 997.94 999.20 999.50 1000.33 1001.28 1002.33 1003.56 1004.64 1006.08 1007.24 1008.37 1009.48 1010.62 1011.74 1012.62 1013.37 1014.32 1015.50 1016.39 1017.24 1017.96 1018.65 1019.59 1019.83 1020.33 1020.52 1021.22 1021.59 1021.80 1022.18 1022.57
1000.25 999.19 998.63 998.23 998.72 998.73 998.73 998.48 998.03 997.74 997.39 997.48 997.78 997.79 998.68 999.28 1000.15 1001.30 1002.63 1003.58 1004.38 1005.46 1006.67 1008.01 1009.22 1010.48 1011.53 1012.38 1012.98 1013.80 1014.81 1015.71 1016.55 1017.04 1017.92 1018.72 1019.31 1020.23 1021.05 1021.40 1021.87 1022.21 1022.49 1022.79
1000.00 999.29 998.95 998.79 998.63 998.60 998.43 998.63 998.80 998.94 998.52 997.84 997.74 997.65 998.51 999.42 1000.33 1001.44 1002.61 1003.32 1004.05 1005.10 1006.32 1007.48 1008.53 1009.62 1010.73 1011.53 1012.12 1012.98 1013.86 1014.54 1015.66 1016.30 1016.97 1017.75 1018.47 1019.68 1020.62 1021.79 1022.12 1022.61 1023.05 1023.33
999.13 999.13 998.92 998.76 998.49 998.50 998.53 998.36 998.86 999.59 999.50 998.98 998.68 998.37 998.95 1000.16 1001.19 1001.77 1002.54 1003.40 1004.16 1005.15 1006.24 1007.09 1008.04 1009.03 1010.15 1011.03 1011.74 1012.49 1013.15 1013.97 1014.89 1015.38 1016.18 1016.89 1017.74 1018.89 1019.87 1020.93 1021.65 1022.53 1023.40 1023.66
999.47 999.26 999.10 998.85 999.01 998.86 998.74 998.44 998.49 998.96 999.32 999.41 999.56 999.94 1000.55 1001.41 1002.37 1002.51 1002.76 1003.36 1004.21 1005.09 1006.04 1006.80 1007.66 1008.79 1009.70 1010.53 1011.32 1012.13 1012.76 1013.81 1014.57 1015.17 1016.00 1016.59 1017.35 1018.29 1019.21 1020.43 1021.07 1021.92 1022.94 1023.75
999.31 999.42 999.23 999.21 999.08 998.82 998.86 998.81 998.60 998.59 999.00 999.45 999.84 1000.20 1000.79 1001.53 1002.01 1002.58 1003.60 1004.21 1004.63 1005.21 1005.96 1007.00 1007.86 1008.77 1009.60 1010.36 1011.15 1012.07 1012.82 1013.72 1014.52 1015.26 1016.14 1016.80 1017.43 1018.16 1019.00 1019.91 1020.56 1021.23 1022.03 1022.66
999.79 999.52 999.22 999.23 999.09 999.03 998.90 998.89 998.95 999.02 999.15 999.50 999.90 1000.46 1000.97 1001.52 1002.20 1002.93 1003.56 1004.56 1005.41 1005.81 1006.58 1007.36 1008.44 1009.27 1009.95 1010.66 1011.44 1012.30 1013.17 1014.08 1014.77 1015.58 1016.20 1016.79 1017.46 1018.15 1018.84 1019.56 1020.11 1020.60 1021.15 1021.99
1000.53 1000.38 1000.22 1000.07 999.88 999.71 999.75 999.95 1000.18 1000.35 1000.44 1000.49 1001.13 1001.57 1002.24 1002.79 1003.28 1003.95 1004.80 1005.73 1006.58 1007.18 1008.02 1008.82 1009.51 1010.04 1010.47 1011.26 1011.60 1012.52 1013.37 1014.30 1014.99 1015.59 1016.23 1016.83 1017.34 1018.01 1018.51 1019.05 1019.54 1019.97 1020.58 1021.71
1001.29 1001.16 1001.09 1000.98 1000.86 1000.74 1000.84 1001.29 1001.90 1002.25 1002.18 1002.08 1002.35 1002.73 1003.23 1003.83 1004.40 1005.27 1006.06 1006.60 1007.28 1007.90 1008.98 1009.62 1010.13 1010.73 1011.10 1011.54 1011.88 1012.53 1013.56 1014.27 1014.81 1015.42 1016.12 1016.76 1017.28 1017.71 1018.17 1018.65 1019.16 1019.72 1020.45 1021.46
1002.51 1002.62 1002.68 1002.98 1003.08 1002.92 1003.19 1003.55 1003.19 1003.27 1003.30 1003.32 1003.52 1003.79 1004.16 1004.68 1005.17 1005.86 1006.64 1007.25 1007.53 1007.61 1008.99 1009.80 1010.38 1010.86 1011.42 1011.92 1012.24 1012.61 1013.63 1014.30 1014.80 1015.47 1016.13 1016.59 1017.14 1017.59 1018.02 1018.54 1019.04 1019.65 1020.40 1021.24
1004.04 1004.18 1004.04 1004.18 1004.23 1004.35 1004.74 1004.94 1004.41 1004.29 1004.37 1004.37 1004.50 1004.81 1005.18 1005.58 1005.95 1006.53 1007.19 1007.45 1008.49 1008.84 1009.28 1010.21 1010.21 1010.93 1011.52 1012.09 1012.35 1013.09 1013.80 1014.44 1014.90 1015.45 1016.03 1016.52 1017.06 1017.46 1017.94 1018.47 1019.01 1019.57 1020.24 1020.97
1005.04 1004.95 1004.92 1004.96 1005.34 1005.46 1005.39 1005.50 1005.26 1005.17 1005.38 1005.51 1005.60 1005.84 1006.05 1006.39 1006.71 1007.20 1007.39 1007.75 1008.81 1009.23 1009.62 1010.18 1010.60 1011.03 1011.52 1012.22 1012.22 1013.25 1013.99 1014.52 1014.99 1015.51 1016.06 1016.55 1016.96 1017.45 1017.91 1018.39 1018.85 1019.36 1019.97 1020.56
1005.53 1005.74 1005.78 1005.82 1005.82 1006.20 1006.45 1006.39 1006.38 1006.26 1006.31 1006.40 1006.53 1006.61 1006.62 1006.92 1007.24 1007.37 1007.87 1008.80 1009.19 1009.60 1009.85 1010.42 1010.95 1011.47 1012.16 1012.37 1013.08 1013.70 1014.18 1014.67 1015.18 1015.61 1016.05 1016.50 1016.94 1017.37 1017.74 1018.18 1018.69 1019.22 1019.75 1020.31
1006.19 1006.33 1006.55 1006.47 1006.51 1006.61 1006.88 1007.05 1007.08 1007.13 1007.25 1007.36 1007.52 1007.54 1007.49 1007.63 1007.96 1008.19 1008.54 1009.09 1009.70 1010.11 1010.46 1011.17 1011.69 1012.24 1012.63 1013.05 1013.56 1014.03 1014.52 1014.99 1015.39 1015.79 1016.21 1016.68 1017.03 1017.35 1017.73 1018.24 1018.78 1019.37 1019.92 1020.49
1006.49 1006.51 1006.52 1006.67 1006.62 1006.97 1007.16 1007.28 1007.36 1007.41 1007.44 1007.60 1007.89 1008.10 1008.13 1008.14 1008.49 1009.26 1009.67 1010.13 1010.52 1010.80 1011.34 1011.97 1012.39 1012.73 1013.03 1013.51 1013.97 1014.43 1014.85 1015.23 1015.62 1016.03 1016.43 1016.80 1017.13 1017.54 1017.99 1018.50 1018.99 1019.50 1020.03 1020.52
1006.08 1006.21 1006.11 1006.57 1006.68 1006.94 1007.16 1007.27 1007.48 1007.71 1008.00 1008.40 1008.84 1009.18 1009.38 1009.60 1009.89 1010.10 1010.37 1010.69 1011.18 1011.60 1011.99 1012.45 1012.80 1013.08 1013.45 1013.86 1014.28 1014.70 1015.13 1015.60 1016.03 1016.40 1016.73 1017.09 1017.49 1017.91 1018.36 1018.83 1019.27 1019.70 1020.17 1020.64
1006.21 1006.30 1006.33 1006.72 1006.96 1007.29 1007.51 1007.73 1007.91 1008.16 1008.54 1008.84 1009.28 1009.71 1009.96 1010.28 1010.56 1010.79 1011.08 1011.37 1011.73 1012.10 1012.48 1012.91 1013.25 1013.54 1013.91 1014.34 1014.76 1015.17 1015.60 1015.98 1016.33 1016.67 1017.03 1017.42 1017.83 1018.24 1018.69 1019.17 1019.61 1020.00 1020.46 1020.96
Wind_Speed
16 20 25 15 13 12 10 9 5 7 14 8 10 8 12 7 10 5 10 13 14 16 18 18 18 14 14 13 9 10 11 11 11 10 11 9 9 9 8 7 6 6 6 6
14 17 17 22 23 21 20 18 13 16 22 16 12 12 14 15 13 10 11 14 16 18 21 22 22 18 16 15 14 14 11 12 12 10 8 9 9 9 8 8 6 5 6 7
11 18 14 14 22 20 20 19 19 17 20 11 10 14 15 13 15 15 13 15 16 17 20 19 20 19 20 19 17 16 13 12 12 11 9 7 10 9 7 6 7 7 6 7
10 13 15 9 5 7 13 14 18 17 18 12 12 11 12 11 11 12 8 13 16 17 18 19 20 19 19 19 18 16 15 14 12 12 10 8 8 9 7 8 8 7 6 6
6 10 14 24 15 12 3 10 12 13 14 13 9 13 17 10 11 9 7 11 13 15 17 20 20 20 19 20 19 18 17 16 15 13 12 11 10 10 8 8 7 6 6 6
8 7 8 14 4 4 5 10 11 13 13 9 9 10 8 7 12 11 1 9 15 16 17 16 17 19 17 19 18 18 17 17 16 16 15 13 12 10 8 9 7 7 7 5
16 15 12 21 20 16 10 8 8 9 3 6 8 9 8 7 4 4 4 4 12 13 14 12 12 16 12 12 13 11 14 15 16 16 15 14 14 12 12 11 10 9 7 6
12 11 14 9 12 20 16 17 17 11 10 6 4 3 3 2 1 6 9 6 8 12 11 10 9 14 14 12 11 10 11 12 13 12 11 12 13 12 12 11 10 10 9 8
5 6 11 4 9 6 12 10 11 11 13 15 3 4 6 6 7 7 10 11 9 11 12 9 10 15 14 11 14 13 13 13 12 11 10 9 10 9 9 10 8 8 7 6
17 15 18 14 12 14 14 15 15 16 15 14 9 4 6 6 7 8 11 12 11 14 13 11 10 12 12 14 14 15 15 14 12 12 11 10 9 9 8 8 7 7 7 7
19 16 17 15 15 8 10 13 18 18 15 13 13 7 6 8 9 9 11 13 15 14 14 15 15 13 14 14 16 16 15 13 15 12 13 11 9 9 8 6 6 6 5 6
9 10 9 10 3 5 11 13 11 9 9 5 8 10 9 9 10 11 11 12 13 14 16 17 16 16 17 18 18 17 16 13 12 12 11 11 10 8 8 6 7 7 5 2
16 16 11 12 10 11 11 3 8 11 14 7 3 6 11 11 12 11 12 12 12 14 15 17 17 17 18 18 18 17 15 15 12 11 11 11 11 9 9 5 8 8 5 6
6 8 12 13 8 5 7 4 5 4 9 5 5 5 9 9 11 13 12 10 11 12 13 15 16 16 16 17 16 15 14 12 12 11 10 10 11 10 9 8 8 7 6 8
11 9 9 7 4 6 5 3 5 9 10 7 9 8 10 9 7 8 12 13 13 14 15 15 15 16 17 16 15 15 12 10 9 8 7 8 8 8 8 9 8 8 8 8
6 7 8 9 9 8 8 6 5 1 5 6 7 9 10 11 12 11 10 9 12 11 14 10 13 13 15 16 15 11 8 10 8 8 7 8 7 7 8 9 9 9 9 9
9 9 7 7 6 7 9 8 8 8 5 4 7 8 10 12 12 12 12 10 5 8 9 11 11 7 6 8 11 10 8 9 10 7 8 8 7 8 8 8 8 9 8 10
6 8 9 10 10 9 6 5 5 7 6 4 4 6 6 6 6 6 8 11 10 11 9 9 9 9 10 10 10 9 8 9 9 8 7 8 9 9 8 9 9 9 8 10
5 7 7 7 7 6 5 6 7 6 6 2 5 6 6 6 9 9 9 9 10 11 10 9 12 12 12 12 9 9 8 9 9 8 8 9 8 9 9 8 8 8 9 9
4 5 6 7 10 11 8 7 5 7 6 4 4 6 8 8 9 11 9 7 3 7 12 14 14 12 12 12 5 8 9 8 8 8 7 8 8 7 8 9 9 8 9 9
6 6 7 8 7 8 7 5 4 7 7 5 5 6 8 8 9 10 10 8 6 10 13 13 10 9 9 12 7 8 8 7 7 8 7 7 7 8 8 8 8 8 8 8
6 6 6 7 6 8 9 8 8 8 7 8 9 8 9 9 9 8 7 8 8 11 9 7 7 10 11 11 8 8 8 7 6 7 7 7 8 7 7 8 8 8 8 9
6 6 7 7 8 8 7 8 8 7 9 8 7 7 7 5 4 4 6 6 8 8 8 6 10 14 13 4 8 7 7 7 7 7 7 7 7 7 8 8 8 7 7 7
5 6 6 4 2 5 6 7 7 8 8 9 9 5 5 5 6 7 9 8 11 4 8 9 12 13 8 7 6 6 6 6 6 6 7 7 6 6 6 7 6 6 6 7
4 4 4 3 4 3 4 5 6 7 8 9 9 8 8 5 6 6 7 8 9 9 9 12 14 11 6 6 7 7 6 6 6 6 6 6 6 6 6 6 6 6 6 6
3 2 3 1 2 2 2 2 3 3 4 5 6 6 6 7 7 7 7 9 9 10 9 8 7 5 6 7 7 7 6 7 6 6 6 6 6 6 6 6 6 6 5 5
3 2 3 3 2 2 2 3 3 4 4 5 6 6 6 6 7 8 8 8 8 8 8 7 6 6 7 7 7 7 6 6 6 6 6 6 6 6 6 5 5 5 5 5
Wind_Direction
324 309 289 234 232 235 195 211 220 286 284 272 301 321 304 245 254 217 197 192 184 180 165 170 158 153 150 142 139 135 134 128 131 137 144 158 159 170 159 153 143 142 131 110
310 294 273 269 257 254 254 264 243 262 269 273 235 230 254 276 252 231 205 197 194 187 175 181 172 168 168 161 153 144 136 134 136 140 148 156 172 162 154 148 100 56 105 90
277 298 313 283 247 254 260 245 250 252 263 173 238 248 240 247 260 225 208 201 192 188 182 180 175 172 172 164 161 156 144 140 143 141 146 162 170 141 112 107 116 109 97 103
273 288 270 282 330 289 279 252 251 245 257 264 236 257 264 254 265 275 208 192 189 185 181 176 174 172 166 162 164 160 156 151 147 148 150 158 120 129 151 137 137 138 140 135
245 250 275 284 276 279 301 268 256 258 265 266 247 258 261 244 249 237 213 170 183 182 175 172 167 170 169 164 166 167 166 164 160 152 152 153 151 156 148 149 150 136 144 136
210 240 241 253 172 170 308 275 255 265 279 292 285 256 269 305 221 215 221 172 170 168 167 168 168 164 165 168 171 173 167 166 160 164 161 158 160 154 153 156 149 149 151 146
221 236 251 263 266 263 244 227 334 311 318 293 272 299 3 7 30 92 77 36 151 159 162 141 147 153 155 165 171 155 155 159 160 165 163 163 158 163 164 169 159 156 153 157
231 243 255 253 255 237 244 247 259 258 284 284 257 315 324 324 140 137 129 84 94 114 126 135 142 141 149 165 134 134 140 142 148 158 154 163 163 162 169 170 164 172 165 168
231 236 257 258 293 341 337 305 299 290 297 288 173 238 244 225 210 154 146 141 119 120 123 122 127 133 148 142 133 130 128 134 141 141 148 151 156 161 173 167 171 183 174 179
277 253 263 290 267 272 298 296 284 282 285 277 272 243 217 201 180 163 153 147 140 133 133 128 126 133 134 141 138 137 137 143 145 144 142 150 162 173 175 176 179 183 179 185
287 270 296 295 278 306 322 304 282 273 270 273 283 240 206 178 163 162 152 143 149 151 151 148 145 134 142 144 145 146 146 152 157 159 164 166 181 178 180 186 184 188 187 189
258 260 279 296 49 301 303 311 287 307 275 265 267 257 186 168 151 146 147 150 149 146 146 152 155 153 157 160 162 157 157 165 169 165 174 171 176 169 51 172 119 77 79 197
256 283 318 303 313 296 302 311 295 330 327 334 314 233 174 155 149 138 150 153 149 149 149 156 157 159 164 167 168 167 166 168 167 174 177 173 175 173 177 126 144 123 126 126
266 314 290 274 271 310 302 307 166 199 312 348 29 118 121 127 136 151 150 149 142 140 152 156 158 158 162 167 171 170 169 166 168 176 177 174 170 174 177 179 176 166 172 173
272 276 278 306 284 277 306 304 208 195 193 156 152 134 118 114 198 174 155 151 150 152 159 159 156 157 163 166 168 171 166 170 167 170 168 164 162 169 156 170 182 163 159 181
257 274 271 258 275 272 253 259 284 274 181 169 169 160 165 167 162 148 134 159 162 162 159 149 152 158 164 166 167 166 149 139 153 152 154 161 165 167 158 176 177 167 174 179
269 263 248 256 265 269 271 266 269 271 285 222 190 176 176 169 163 156 148 159 109 120 127 136 138 134 126 132 158 157 152 153 157 155 165 169 167 175 173 179 182 180 184 168
293 294 289 290 289 284 265 274 303 317 311 324 71 101 94 95 137 107 100 99 93 87 94 114 124 119 120 137 155 156 146 160 171 163 163 176 177 181 179 184 192 188 171 160
348 340 337 345 345 315 326 354 7 352 359 90 132 142 135 132 131 128 127 124 129 132 140 133 134 139 143 153 164 155 148 160 178 162 174 174 181 185 182 185 185 183 165 160
25 27 37 41 36 22 23 6 29 41 26 48 105 124 130 135 136 137 134 121 118 128 143 141 150 153 157 161 191 139 146 159 171 162 168 172 179 184 170 181 185 177 170 169
64 57 59 51 53 51 40 8 47 60 44 58 85 104 114 111 116 128 136 124 100 132 130 151 147 145 154 157 171 132 143 159 172 161 169 176 172 182 178 182 182 177 181 176
68 66 64 64 51 47 36 26 41 61 70 79 81 90 106 105 97 76 31 117 131 127 133 142 151 154 141 160 137 135 148 166 158 160 167 177 176 180 182 182 187 181 183 184
74 58 57 57 62 56 49 46 44 59 71 67 75 83 82 87 99 114 111 113 131 136 138 141 120 123 145 142 127 142 152 151 159 166 166 172 173 183 183 179 180 178 177 174
82 83 80 76 88 87 72 68 74 75 80 77 63 51 99 94 76 68 92 93 108 127 110 119 121 132 145 119 127 131 137 149 154 154 155 167 177 177 167 156 162 159 163 165
101 99 104 104 108 90 99 103 99 91 91 92 84 65 57 61 87 97 102 106 111 106 116 126 137 140 121 129 138 144 145 148 148 149 151 161 151 146 143 144 157 158 155 164
170 147 98 46 91 126 144 134 114 109 109 101 87 82 79 86 103 109 109 108 107 115 118 129 135 126 129 133 133 129 129 125 135 142 150 142 142 142 142 146 148 153 155 165
156 106 132 127 120 157 150 133 131 116 98 114 104 98 98 100 103 109 112 110 107 111 113 119 122 119 119 122 122 120 125 138 132 135 133 133 138 135 135 138 141 146 136 135